Wind_Speed
21 23 23 22 20 18 16 15 14 14 16 18 17 16 15 15 15 16 16 16 17 17 16 17 18 20 23 24 25 28 27 25 26 25 21 20 23 25 26 26 25 25 26 28 29 30 32 34 35 37 39 36 30 29 33 34 36 38 40 40 39 38 37 36 37 41 42 39 38 38 37 37 35 31 28 26 23 21 23 25 27 27 27 26 26
22 23 24 24 23 21 19 18 16 14 13 14 14 15 15 15 16 17 17 19 22 22 19 17 18 22 24 25 24 25 24 22 23 23 22 23 25 26 26 25 24 26 28 29 30 31 32 33 34 35 35 34 29 29 31 33 35 37 37 38 38 37 37 37 38 40 41 40 40 40 36 33 34 33 30 29 27 24 23 25 26 28 28 28 27
21 23 24 24 23 22 22 21 22 21 19 17 15 15 15 15 17 20 20 20 23 27 27 25 25 26 25 23 22 21 20 20 21 20 22 25 27 27 28 26 24 25 27 27 28 28 28 30 33 33 33 33 32 30 30 31 32 33 34 35 36 36 37 36 35 36 37 36 36 37 35 32 32 31 30 30 29 26 26 27 27 27 27 27 28
21 22 22 22 20 20 21 22 22 22 22 19 13 12 15 16 19 22 22 21 23 26 26 24 24 24 21 19 18 17 17 19 20 20 22 25 26 25 25 24 24 25 25 26 27 28 29 30 32 33 33 34 34 32 32 31 30 30 31 33 34 36 36 35 32 32 33 32 33 35 35 35 34 31 29 30 29 30 32 31 29 29 29 29 29
23 23 21 19 18 18 19 21 21 21 20 15 9 9 13 17 20 21 21 20 19 19 18 16 14 13 12 13 14 13 14 17 18 19 21 23 23 23 24 23 23 24 24 25 26 27 28 29 29 30 31 33 33 32 32 32 32 32 32 32 33 34 34 33 31 32 33 33 35 36 35 34 32 29 29 30 31 33 35 32 28 27 28 28 27
23 22 20 18 18 16 15 16 17 17 16 12 9 11 14 15 16 17 18 18 16 15 15 14 11 10 10 11 12 12 13 15 16 18 20 20 21 21 22 23 23 23 23 22 23 23 23 24 25 27 28 29 29 29 30 31 32 33 33 33 35 34 34 34 32 33 32 31 31 33 33 32 31 29 31 34 34 34 32 30 27 26 26 26 25
20 20 18 17 17 14 13 14 15 14 13 12 12 14 14 13 12 12 13 13 11 11 11 10 10 11 13 14 14 14 16 18 19 21 21 21 20 19 19 21 22 22 23 24 25 25 26 27 28 29 28 27 28 29 30 29 29 29 30 31 34 33 33 35 35 35 33 31 30 30 32 33 32 30 32 33 31 29 27 27 28 27 26 25 23
19 19 18 17 16 15 15 17 16 14 13 13 13 14 12 11 9 8 8 6 5 7 7 6 8 11 14 15 15 14 16 18 20 21 20 20 20 20 20 21 23 25 27 28 29 28 28 28 28 27 26 26 26 26 27 26 25 26 27 27 27 26 26 28 30 31 31 31 31 31 30 31 30 28 27 26 25 25 26 26 26 25 24 22 21
18 17 17 17 17 17 17 17 14 12 12 10 9 10 8 6 5 4 5 5 6 8 9 10 12 14 14 14 12 11 14 16 18 18 18 19 20 22 23 25 27 29 30 29 28 27 26 24 22 21 21 22 23 25 27 26 25 26 26 25 24 22 22 24 25 25 25 25 26 25 24 23 24 22 21 22 22 22 22 22 21 21 21 21 20
17 17 18 17 16 14 14 13 12 10 9 6 4 3 2 2 3 4 5 6 7 7 8 10 11 13 13 11 10 12 14 15 17 18 19 21 23 25 26 28 29 30 30 29 28 28 27 26 24 21 21 22 23 24 25 25 24 24 24 24 24 24 23 24 25 25 24 23 23 22 20 20 20 18 18 19 20 19 18 19 19 20 20 21 21
17 17 16 14 11 11 11 10 8 6 3 3 2 1 2 4 4 4 5 7 9 10 11 12 12 12 11 10 10 13 14 16 18 20 22 23 25 27 28 29 30 31 31 31 29 28 27 27 26 23 21 22 22 22 22 22 22 23 23 23 24 23 22 21 22 24 24 24 24 24 23 22 21 19 17 18 19 18 18 19 19 19 19 20 20
16 15 13 10 9 8 6 4 4 3 4 5 4 3 3 3 5 7 9 10 11 11 11 11 11 10 10 8 10 13 15 17 20 21 23 25 26 28 29 30 30 30 30 29 27 24 23 24 25 23 20 20 21 22 21 21 21 21 21 22 21 21 20 20 20 21 22 22 22 22 22 22 21 19 19 22 22 19 17 16 17 17 17 18 20
14 13 11 8 7 6 6 6 6 5 3 2 1 3 5 7 10 11 11 10 10 9 8 8 9 10 10 8 10 14 15 18 21 23 24 26 28 28 28 28 27 26 26 24 22 20 19 21 22 21 20 19 20 21 21 21 20 18 18 19 19 19 19 19 18 18 19 20 21 22 22 21 20 20 19 21 22 20 19 18 17 17 17 18 20
14 13 11 10 10 9 7 5 4 2 1 3 5 7 9 10 11 11 9 7 7 7 7 6 8 9 10 9 10 14 16 19 22 24 26 27 27 26 25 24 23 23 22 22 19 16 17 18 19 20 20 19 18 19 20 20 18 16 15 15 16 16 16 16 15 15 16 17 18 20 21 21 20 20 20 19 18 18 20 21 19 19 18 19 20
15 14 11 10 9 7 5 2 0 1 4 6 8 9 9 9 10 9 7 5 6 8 10 9 9 11 11 11 12 15 18 20 22 25 26 25 25 24 23 23 23 23 22 21 18 16 15 15 16 18 19 18 17 18 18 18 17 17 15 12 13 13 12 11 12 12 11 12 13 13 15 16 16 18 18 18 16 15 17 18 18 18 18 18 19
14 12 10 8 5 3 2 1 3 4 6 7 8 8 6 7 8 6 6 6 7 9 10 7 8 11 12 13 14 15 17 19 22 24 25 25 25 25 25 24 23 23 22 20 17 16 15 14 15 17 18 17 17 18 18 18 17 17 16 12 11 12 10 8 9 8 7 8 10 9 9 10 12 13 14 15 15 15 16 17 16 16 16 17 17
12 9 8 6 4 3 2 3 4 5 6 6 6 6 4 5 5 8 9 8 6 5 5 5 7 11 15 15 15 14 15 18 20 23 24 25 25 25 24 23 21 20 20 19 18 17 16 14 14 16 17 16 17 19 18 17 17 18 17 14 11 10 8 6 5 5 6 7 8 7 7 9 11 12 12 12 12 13 14 14 13 13 13 15 15
10 8 7 5 4 3 3 4 4 4 4 3 3 3 4 5 7 8 7 5 5 4 6 8 9 12 15 15 14 14 15 17 19 22 23 23 23 22 20 19 19 20 20 20 20 19 18 15 12 13 15 16 17 17 16 15 15 16 17 15 12 9 7 6 4 3 4 5 5 4 5 7 8 8 8 7 7 9 10 10 11 11 13 14 14
9 8 6 5 4 3 3 3 3 3 2 0 2 4 6 7 6 4 3 3 6 8 8 10 12 14 17 16 14 14 15 15 18 21 21 21 20 18 18 19 20 21 21 22 22 22 21 18 14 13 14 14 14 15 14 14 14 14 14 13 9 8 6 3 4 5 4 5 5 5 5 6 6 6 6 5 5 6 8 9 9 11 13 13 13
8 6 5 4 4 4 4 4 3 1 1 3 5 7 6 5 5 5 5 7 10 12 11 12 14 17 18 17 15 15 15 15 18 20 19 18 18 18 20 21 21 21 22 23 23 24 23 19 15 14 15 14 12 13 13 12 13 13 12 9 7 8 9 6 0 3 4 6 7 7 7 8 8 7 7 6 5 6 7 7 8 9 10 10 11
7 6 5 5 5 4 4 3 3 5 5 6 8 8 6 5 5 7 9 10 11 12 13 14 17 18 18 17 16 16 15 16 18 19 18 18 19 21 22 21 20 21 21 22 23 23 22 20 15 14 13 11 8 9 10 11 12 12 11 9 8 7 8 8 6 5 5 6 7 8 8 8 7 7 7 7 6 6 6 6 6 8 9 9 10
8 7 6 5 4 4 5 5 6 8 8 8 8 8 7 6 8 10 11 11 11 12 14 15 16 16 17 18 19 19 18 18 18 18 18 21 25 27 27 25 24 23 22 22 22 22 23 22 19 16 12 7 4 5 8 9 11 11 9 7 6 5 5 6 8 8 6 6 7 8 7 7 6 5 5 5 5 6 6 6 6 7 8 9 10
9 8 6 6 6 7 8 8 8 9 9 9 8 5 5 7 10 12 11 10 11 13 14 14 14 15 17 19 21 22 22 21 20 19 21 26 31 32 31 31 31 30 28 27 24 23 24 25 24 22 19 14 10 10 10 8 7 7 6 7 6 6 5 4 2 3 4 5 7 7 6 5 5 5 4 4 4 4 5 5 6 6 7 8 8
8 7 6 8 10 10 10 11 11 10 8 7 6 5 6 8 10 10 9 10 13 14 13 12 15 17 18 19 21 23 23 23 22 22 26 30 32 32 32 32 33 34 34 33 32 31 29 28 26 24 21 18 17 17 17 16 14 13 12 12 12 12 12 11 7 3 2 3 5 7 8 9 10 10 10 10 10 9 9 8 8 8 10 10 10
7 7 9 11 11 11 12 12 10 8 7 7 6 7 9 10 9 9 10 11 12 11 9 12 16 18 19 20 21 23 24 24 25 26 27 27 28 28 28 29 29 30 32 33 34 35 35 36 35 32 28 25 22 20 19 18 18 16 15 14 13 12 11 8 4 1 3 5 7 9 11 12 13 13 13 13 13 13 12 11 9 8 10 11 12
7 8 11 12 11 12 13 12 8 8 8 8 8 9 9 10 11 11 11 12 11 9 8 11 15 18 21 22 22 24 25 24 24 24 24 24 24 24 25 25 25 26 27 28 30 31 31 34 37 38 38 36 34 30 27 24 23 21 18 16 14 13 11 9 8 8 10 13 14 14 15 16 18 17 14 11 9 7 5 3 2 3 4 6 7
7 9 11 13 13 12 12 11 9 9 10 9 10 10 10 10 12 13 14 13 12 11 11 12 13 16 19 21 21 23 25 25 24 24 24 24 23 23 24 24 24 24 24 25 26 27 28 29 31 33 34 35 36 36 35 33 32 30 29 26 25 25 24 22 21 22 24 25 25 24 24 25 26 27 26 25 23 18 13 8 6 4 1 2 4
8 11 14 15 13 11 11 10 9 9 11 12 12 13 13 13 14 16 17 17 16 16 16 17 16 15 17 18 19 21 23 25 25 25 24 24 23 23 24 24 25 25 26 25 25 26 27 28 29 30 31 31 31 32 34 34 34 33 32 31 31 31 31 30 29 29 28 27 28 28 28 28 29 30 31 33 33 30 25 19 13 9 7 5 6
9 11 14 14 13 13 13 12 9 9 10 13 14 15 15 15 16 18 18 18 18 18 18 17 17 17 16 17 18 19 20 22 23 23 23 24 23 23 23 23 23 24 25 25 26 26 27 27 27 28 29 30 30 30 29 30 31 31 30 29 28 28 29 29 29 29 27 26 24 23 23 25 26 26 28 30 31 31 31 28 22 16 13 12 13
10 11 13 13 13 13 15 16 14 12 13 15 16 17 17 16 17 18 18 18 17 17 16 16 16 16 16 16 17 18 18 18 18 18 19 21 22 22 21 21 21 21 22 24 25 25 26 27 26 27 27 27 27 27 27 26 27 27 27 27 26 26 26 25 24 24 25 25 24 21 20 21 22 21 22 25 26 25 27 30 29 26 23 21 19
10 12 14 13 11 11 14 16 16 16 18 17 17 17 17 17 16 16 15 15 15 14 14 14 14 14 14 14 15 15 15 14 14 15 16 17 20 21 21 20 20 21 22 24 25 25 25 26 26 26 26 25 25 25 25 25 25 24 25 25 26 26 25 24 22 21 21 22 23 23 23 21 21 20 19 21 23 21 21 25 27 28 28 28 27
10 12 14 14 12 11 14 17 19 20 19 18 17 16 15 14 14 13 12 12 12 11 11 12 12 12 11 11 12 12 12 12 12 13 13 13 16 20 21 21 21 21 21 24 25 25 25 25 25 25 25 26 26 25 24 24 24 24 24 24 25 25 24 24 22 21 21 20 19 21 22 22 21 21 21 20 20 19 18 20 22 23 23 25 27
10 12 14 16 16 13 13 16 19 19 17 15 13 11 10 9 8 9 9 9 9 9 10 10 10 10 10 10 11 12 12 12 12 14 13 11 12 16 18 20 21 21 22 25 25 25 24 25 25 24 24 24 24 25 25 24 23 23 23 23 23 23 23 22 21 21 21 21 19 19 20 19 19 20 20 20 20 20 19 18 18 18 17 18 20
10 11 13 16 17 15 13 14 15 14 12 10 8 6 4 2 3 5 6 7 7 8 9 9 10 10 10 11 11 12 13 13 13 14 12 10 10 13 15 17 19 21 23 24 24 24 24 24 24 24 23 23 23 23 24 24 24 23 22 22 22 22 22 22 22 21 21 21 21 20 20 19 18 17 18 18 19 20 20 19 17 16 15 16 17
10 11 14 16 17 15 13 12 11 10 8 8 6 5 6 5 3 2 3 4 5 6 7 9 10 9 9 10 12 13 13 14 14 14 13 11 11 12 14 16 19 22 23 23 23 22 22 22 21 21 22 22 22 21 22 23 23 23 22 22 22 22 22 22 21 21 20 20 20 20 20 19 19 18 17 17 17 17 19 19 18 17 15 15 15
9 12 16 16 15 15 14 13 12 11 11 11 8 5 5 6 5 4 4 3 2 1 3 7 9 8 8 10 11 12 13 13 12 13 12 11 12 14 16 18 19 20 22 22 21 20 19 19 19 19 20 20 21 20 19 19 20 21 21 20 20 21 22 22 21 20 19 19 19 19 18 18 18 18 18 18 17 16 16 17 17 16 14 13 14
9 12 16 17 15 14 14 13 13 12 11 10 8 7 7 6 5 4 4 4 2 1 2 3 5 5 7 8 8 10 13 13 11 11 11 11 11 14 16 17 17 17 19 20 19 18 18 17 17 17 17 18 19 19 18 17 17 18 18 18 17 18 19 20 20 19 19 19 18 18 18 17 17 17 16 16 16 16 16 16 16 16 15 14 13
9 12 15 16 15 14 13 13 14 13 10 9 8 8 7 7 6 5 5 4 3 2 2 3 2 3 6 7 7 9 12 12 11 11 12 11 12 13 14 15 15 15 16 17 17 17 17 16 15 14 15 16 16 17 18 16 15 15 16 16 16 15 16 17 18 18 18 19 19 18 17 17 16 16 16 16 15 15 16 15 15 15 15 13 12
10 13 16 16 15 15 13 13 14 12 9 8 8 7 7 6 5 4 4 4 4 2 1 2 3 4 6 6 7 9 10 9 10 11 12 12 13 13 12 13 14 14 14 15 16 15 15 15 14 13 13 14 14 15 16 16 15 14 14 15 15 15 14 15 17 17 17 17 17 17 17 17 16 15 16 17 15 14 15 16 15 15 16 14 10
11 15 18 16 14 14 13 13 13 11 9 8 8 8 7 6 5 5 4 4 4 2 1 2 3 4 6 7 6 8 9 8 8 10 11 12 13 13 12 12 13 12 11 13 15 15 14 14 14 12 12 13 13 12 13 14 14 13 12 12 13 14 14 14 16 17 16 17 17 16 16 16 15 14 15 16 16 14 14 15 14 14 16 16 12
11 15 17 16 13 12 12 13 12 10 10 9 9 8 8 7 6 5 5 4 4 2 0 2 3 4 6 7 7 8 10 8 7 8 9 10 11 12 12 12 12 12 11 11 12 14 14 13 13 13 13 13 14 13 12 12 12 12 11 9 9 10 11 12 14 16 16 16 17 15 14 14 14 15 15 15 15 14 14 14 14 13 15 17 16
13 16 18 17 15 12 10 11 11 11 10 10 8 8 8 7 6 6 5 5 4 3 1 1 5 7 8 9 9 9 9 8 7 8 9 9 10 11 11 10 11 12 12 11 11 11 11 11 12 12 13 13 14 14 13 12 12 12 12 11 10 9 8 9 11 14 16 17 16 15 14 13 13 14 15 14 14 14 15 14 14 14 14 15 16
16 18 17 16 14 11 10 12 13 11 9 8 8 9 8 6 6 7 6 6 6 5 2 1 6 8 8 9 9 9 7 6 6 7 8 8 9 9 9 9 10 10 10 11 11 10 9 10 10 11 11 12 12 13 13 13 13 12 12 12 12 11 10 8 8 10 13 16 15 15 15 15 13 12 14 14 13 13 14 14 14 14 14 14 13
17 17 15 14 13 12 12 13 12 11 8 8 10 11 9 7 7 8 8 8 7 5 1 2 5 6 6 7 7 6 5 4 4 6 7 8 8 7 7 8 9 9 9 10 10 9 9 9 9 9 10 10 10 11 11 11 11 12 12 11 11 10 10 9 8 8 11 13 14 14 14 15 14 12 12 13 13 12 12 13 13 13 14 14 13
16 15 14 13 13 12 12 11 11 12 11 9 11 13 11 8 7 8 7 5 2 2 2 1 2 3 3 3 3 3 2 3 5 5 5 5 5 6 5 6 7 9 8 8 8 8 8 8 8 9 9 9 9 9 9 10 10 10 10 10 10 10 10 10 10 8 8 10 12 13 13 13 13 12 12 13 12 11 11 12 12 12 12 14 14
16 15 14 13 13 13 12 12 12 14 11 8 10 13 11 8 7 7 6 4 3 3 3 2 1 1 2 1 1 1 2 2 3 4 5 4 4 5 5 4 5 7 8 7 8 8 8 8 9 9 9 9 9 8 8 9 9 9 9 9 9 9 9 9 8 7 7 8 10 12 13 12 11 11 11 12 12 12 11 11 11 11 11 12 14
15 14 14 14 13 13 13 13 13 14 11 10 10 11 10 9 9 9 8 9 9 7 5 2 3 3 3 2 2 1 1 2 1 3 5 5 5 6 6 4 3 5 7 8 8 9 9 9 9 9 9 8 8 8 8 8 8 8 8 8 8 7 8 8 7 6 6 6 7 10 11 11 10 10 10 9 10 12 12 12 11 10 10 12 14
15 15 14 14 13 13 14 14 15 13 12 11 11 10 10 10 11 9 7 7 8 8 5 3 4 4 3 3 2 2 1 0 1 1 2 3 4 6 6 5 3 4 6 8 9 9 10 9 9 9 8 8 7 7 7 7 7 8 8 7 7 7 7 7 7 6 6 5 5 8 10 10 10 11 10 8 7 9 11 12 12 11 11 12 13
15 15 14 14 14 14 14 13 13 12 12 11 11 11 11 11 10 8 7 5 4 4 3 4 5 5 5 4 3 3 2 1 0 0 1 2 4 4 6 6 5 3 4 6 8 9 10 10 10 9 9 7 7 6 6 6 7 7 7 7 7 7 7 7 7 7 6 5 4 5 8 9 9 10 11 10 8 7 8 11 12 12 12 12 13
15 15 14 13 14 15 13 12 12 12 11 11 12 12 12 11 10 9 8 6 4 3 4 6 6 6 5 5 4 4 3 2 1 1 1 2 3 4 5 6 5 3 3 5 7 7 8 9 10 10 10 8 7 6 6 6 6 6 6 7 7 7 7 7 7 7 7 7 6 5 7 8 8 8 9 11 10 9 8 10 11 12 12 12 13
15 15 14 13 14 15 13 12 13 13 12 12 13 12 12 12 11 9 8 7 7 6 7 7 6 6 6 6 5 4 4 4 3 2 2 3 4 4 5 6 5 3 3 5 6 6 7 8 9 10 10 9 8 7 6 6 6 6 6 7 7 7 7 7 7 7 7 8 7 7 7 9 9 8 8 10 10 9 8 8 9 10 11 12 12
Wind_Direction
216 217 210 211 219 223 232 233 229 242 250 247 256 264 256 252 257 265 265 258 261 266 267 271 270 262 262 266 272 278 280 276 268 261 263 266 264 265 266 265 267 270 269 269 273 276 274 270 269 269 270 270 266 266 269 268 267 270 273 270 266 265 264 259 260 267 270 271 270 272 276 274 265 261 264 266 268 273 275 275 276 272 267 267 271
216 218 217 216 220 222 228 232 232 244 252 248 258 266 259 251 249 254 259 258 261 265 269 275 271 266 270 275 278 281 280 276 269 265 268 269 266 267 268 268 271 271 270 271 273 272 270 269 271 273 274 277 277 275 275 271 267 270 272 270 266 266 265 264 267 270 271 271 270 271 274 275 268 263 263 268 271 270 271 275 277 273 267 266 267
216 220 224 225 229 232 235 237 238 244 253 257 257 256 259 263 263 264 265 263 260 260 264 271 271 271 276 279 279 280 278 275 271 269 271 271 270 272 274 276 277 272 271 274 273 269 266 267 271 274 276 281 285 283 279 274 270 267 266 265 266 268 270 269 268 267 267 269 269 268 268 271 272 268 264 267 270 269 274 279 275 271 268 266 268
218 224 230 232 235 238 239 241 242 245 254 260 256 249 253 258 260 262 262 259 257 256 260 265 268 272 276 276 275 280 281 276 270 267 268 271 273 277 279 281 279 275 276 277 273 269 267 268 272 274 277 281 284 285 282 279 275 267 261 262 264 267 269 267 263 262 263 266 266 265 268 272 273 269 264 264 263 266 278 281 272 268 271 271 272
216 226 234 236 238 240 241 243 247 250 254 254 246 244 242 237 242 248 250 252 252 250 252 258 268 278 282 280 277 277 281 279 274 270 272 277 282 285 286 286 284 282 280 277 275 275 275 276 277 277 279 279 280 282 280 278 276 270 264 264 265 266 267 264 260 259 260 263 266 268 270 270 268 263 259 260 264 272 281 282 272 267 270 271 270
217 226 233 234 235 235 239 246 248 250 253 244 226 230 233 232 241 247 248 252 254 252 254 261 271 268 262 267 269 268 274 279 277 277 277 280 285 289 291 291 288 285 281 277 277 279 281 284 284 284 285 283 282 283 281 278 278 275 271 267 265 263 263 260 256 256 259 263 267 269 269 265 262 260 260 265 273 278 280 278 272 267 267 270 271
215 223 227 230 231 225 224 234 238 240 243 234 223 229 237 244 253 257 257 261 265 265 265 270 277 270 264 268 275 278 279 275 274 278 281 283 285 286 286 285 284 283 280 278 278 277 278 281 284 285 285 284 287 291 290 287 284 282 277 270 266 265 264 260 259 259 261 263 264 266 269 268 265 266 270 274 276 275 272 271 271 269 267 268 267
214 219 220 221 222 213 213 224 231 236 240 236 232 236 244 252 256 259 268 271 256 254 256 250 257 271 282 289 294 294 287 281 281 284 286 288 288 285 282 280 283 287 288 289 289 288 286 286 286 285 283 281 281 282 285 289 289 286 282 276 273 273 271 268 267 267 265 264 266 269 272 271 269 270 274 275 273 270 268 269 272 272 270 269 267
211 212 212 212 213 212 217 229 236 240 241 240 240 242 249 264 270 263 263 255 243 250 257 253 257 273 292 305 310 302 293 292 294 294 294 293 291 289 288 288 290 293 296 299 300 300 299 297 293 291 285 280 275 270 271 277 283 285 284 284 284 282 279 276 277 277 273 270 271 275 276 271 268 270 273 275 274 272 270 269 270 271 271 270 270
200 201 202 206 214 216 220 229 233 236 235 228 233 242 222 220 244 250 250 255 267 279 282 281 285 293 305 317 318 305 299 301 300 299 299 298 296 295 294 295 296 297 300 302 302 302 301 299 296 291 284 281 278 275 273 273 275 277 278 279 280 280 280 278 276 277 278 275 273 276 275 271 271 273 274 275 275 272 267 264 264 266 267 269 270
192 195 198 203 209 211 213 215 217 224 200 130 125 236 215 207 232 263 285 295 305 313 310 309 316 318 319 328 321 307 303 303 301 300 299 299 298 298 298 298 298 299 301 302 303 303 301 299 298 295 288 284 281 280 281 279 275 274 274 275 275 275 276 278 276 275 274 272 271 271 270 271 273 272 271 271 271 271 268 266 267 268 269 273 276
185 187 188 188 190 194 193 169 147 145 139 142 165 215 254 281 302 311 316 316 314 316 321 327 329 320 317 323 313 303 304 302 298 297 298 298 299 300 301 303 303 304 305 305 305 305 303 301 299 296 289 284 283 284 285 284 282 281 278 276 277 277 276 277 277 276 272 270 270 268 265 267 269 269 271 272 271 272 273 271 272 274 276 277 280
170 169 164 152 142 132 122 125 137 144 154 177 221 299 313 316 314 312 315 319 321 324 332 336 326 313 313 317 306 302 304 301 297 298 299 300 302 305 308 309 309 310 311 311 308 306 305 302 299 297 293 288 288 288 289 289 289 290 286 278 277 279 279 278 278 278 274 269 268 268 267 269 271 271 273 275 273 275 278 279 279 283 283 281 280
152 147 139 128 123 123 128 147 158 153 298 320 319 315 315 313 310 312 319 327 332 335 334 326 322 319 319 319 311 306 305 300 299 301 304 307 311 315 316 316 317 320 321 320 318 312 307 305 303 302 298 294 291 290 291 292 290 291 292 286 281 280 281 280 277 275 275 272 270 271 272 273 274 272 272 275 274 273 277 281 283 284 283 282 281
138 136 136 130 130 136 143 150 132 316 308 311 310 311 315 312 309 318 332 334 344 355 352 341 333 325 316 313 314 311 309 306 306 309 314 320 324 324 325 326 327 329 329 328 326 320 314 311 306 300 295 294 294 293 294 296 294 289 286 287 289 288 284 280 275 272 277 276 271 272 274 271 270 270 270 271 271 274 279 281 282 283 285 285 283
140 143 149 143 144 156 164 252 296 303 305 307 307 309 312 307 313 346 9 3 14 22 14 359 340 326 316 316 319 318 317 316 316 321 327 332 333 334 336 338 337 337 338 336 331 325 318 310 302 298 296 294 293 292 294 298 298 291 282 280 290 295 293 288 280 276 275 267 260 265 275 272 268 268 268 268 273 280 282 280 282 287 290 288 286
151 155 160 164 181 200 230 277 294 300 300 300 306 310 310 322 360 42 37 14 17 30 7 339 330 325 321 326 333 336 337 331 327 332 337 338 339 341 343 344 346 350 353 352 348 341 332 321 308 299 295 292 292 293 294 298 300 297 290 281 277 292 317 330 306 287 284 278 274 274 275 273 269 267 269 274 280 283 283 285 290 292 289 288 289
164 170 174 184 201 222 257 279 281 277 280 291 321 338 7 26 42 61 52 2 325 335 349 344 341 335 333 341 350 351 347 337 332 340 345 343 344 348 349 355 4 9 8 3 357 351 343 338 327 307 296 293 295 295 296 298 300 300 300 292 276 279 314 344 354 327 302 295 296 291 281 282 278 271 270 273 278 283 286 289 291 285 280 282 286
171 174 181 192 208 228 243 246 246 254 267 325 47 44 48 49 46 51 54 4 344 355 7 2 354 351 350 355 358 351 347 342 340 349 353 349 352 1 8 13 16 14 8 2 358 354 349 343 335 318 306 302 297 292 293 296 295 296 304 306 289 265 267 312 20 12 342 334 342 344 330 322 322 319 309 296 291 295 290 283 283 283 282 284 286
168 175 189 197 208 218 214 208 207 177 78 73 73 68 64 65 56 34 34 35 21 14 15 8 1 1 1 2 1 355 352 350 352 357 359 359 7 19 22 17 14 12 7 2 1 360 353 345 335 318 305 300 294 289 289 294 299 303 307 306 288 260 246 238 298 17 359 351 350 351 348 339 339 340 327 308 304 308 297 287 288 291 290 291 292
172 183 194 195 200 199 184 162 122 98 84 76 81 81 68 61 63 53 47 44 30 20 19 14 7 7 9 11 13 12 7 5 5 7 10 16 25 29 26 19 14 13 9 6 7 7 1 355 348 331 313 299 293 300 307 310 312 310 303 292 288 283 266 247 244 275 322 350 356 354 352 348 348 344 327 312 308 311 307 303 305 304 296 289 289
182 188 189 186 176 144 120 111 104 98 91 82 80 79 70 61 57 54 52 48 38 31 25 17 13 20 28 30 32 31 26 20 16 16 23 35 42 43 41 39 34 28 22 17 17 17 17 17 14 7 359 348 334 339 336 325 316 314 316 318 321 320 301 261 247 261 300 341 350 346 346 355 2 351 327 318 319 321 317 308 303 305 302 294 293
177 176 169 150 127 111 102 95 90 89 90 90 89 89 90 84 74 66 56 43 41 41 31 22 29 40 42 38 35 34 32 27 23 29 43 54 57 57 55 53 50 46 40 36 33 31 31 31 32 34 38 47 52 41 27 12 356 357 19 36 38 41 47 46 1 309 319 327 326 329 339 347 341 324 311 308 310 316 320 310 304 307 307 303 301
167 161 142 120 110 104 96 90 91 93 93 99 109 113 95 83 83 88 84 63 51 44 31 29 45 50 45 40 37 36 38 41 44 51 60 64 64 62 58 56 56 53 50 47 46 46 45 44 43 44 47 53 57 54 49 48 51 58 66 66 63 64 65 65 61 46 340 311 318 329 335 330 321 313 308 303 299 298 296 292 293 297 295 292 289
156 138 122 115 114 112 105 101 105 110 108 106 106 98 86 79 78 87 99 97 84 68 45 40 51 55 52 48 44 42 46 55 62 64 64 64 63 60 56 55 55 53 51 49 48 49 50 50 50 52 52 53 53 53 53 52 53 57 62 65 66 67 67 69 70 20 346 355 357 357 354 351 345 336 326 316 308 302 295 289 283 281 283 283 281
143 123 120 118 113 108 106 108 109 104 104 109 110 105 102 99 91 86 94 108 111 103 83 60 54 56 58 55 51 49 53 60 66 66 63 60 57 55 54 53 52 49 48 47 45 45 44 44 46 50 53 55 56 55 55 55 55 56 57 59 61 61 59 58 55 49 46 45 42 40 41 41 37 31 27 20 7 349 332 316 279 246 260 275 283
134 123 119 108 98 98 108 116 112 102 103 110 113 111 107 104 100 95 95 101 106 107 101 84 67 59 60 60 57 54 54 56 59 60 58 55 52 50 49 48 46 45 45 46 46 44 41 40 41 44 47 51 54 55 55 55 57 59 60 61 62 61 60 60 62 64 64 63 61 60 59 56 51 47 46 45 44 43 48 64 93 108 83 323 325
130 121 115 109 108 113 116 113 111 115 119 118 113 109 106 101 99 97 95 95 96 95 92 88 81 71 65 63 62 59 57 55 53 51 49 47 46 47 46 45 44 46 46 47 49 48 47 45 44 43 44 45 47 50 51 51 51 53 54 54 55 56 56 56 57 58 58 56 55 57 58 56 55 52 49 46 46 46 47 53 66 76 65 41 35
137 126 121 121 128 134 134 138 153 161 144 124 112 109 109 107 103 100 97 94 91 87 84 81 80 76 70 64 61 59 57 56 54 51 47 44 43 43 42 42 45 48 49 49 51 51 51 50 49 46 46 46 46 47 49 49 49 50 50 50 50 50 50 51 51 51 51 48 44 42 43 44 47 49 47 45 46 48 48 49 53 60 64 63 61
138 129 128 134 146 157 163 168 172 162 140 124 116 112 108 105 101 99 97 92 88 86 83 79 76 74 69 63 57 54 52 52 52 52 51 50 48 46 44 46 50 53 53 53 53 52 51 52 51 50 49 49 48 48 50 51 52 51 51 51 52 51 50 49 48 47 47 47 45 44 40 37 36 36 37 39 41 44 46 47 48 52 55 60 62
140 137 141 148 155 160 161 158 151 140 130 122 115 110 107 103 99 95 92 90 86 83 80 77 73 69 66 61 57 54 52 49 46 45 46 51 53 51 50 53 55 56 58 58 55 52 50 50 50 49 49 48 49 49 50 51 51 52 51 50 51 51 51 50 50 50 48 46 46 47 47 47 47 45 42 40 40 40 41 42 42 44 49 56 61
154 152 154 154 149 144 143 139 134 128 122 116 109 104 100 95 92 87 83 82 79 74 72 71 69 65 61 58 56 54 50 45 41 36 35 44 53 52 50 52 54 55 59 60 56 52 49 48 47 47 47 46 47 48 50 50 49 48 49 50 49 48 50 51 51 52 52 49 46 45 44 45 48 51 52 53 53 52 48 44 41 40 43 50 55
164 162 159 154 152 152 149 141 134 125 115 105 96 88 80 73 68 65 63 61 62 62 60 57 56 56 52 48 46 44 38 34 35 33 29 37 54 57 53 52 53 54 57 58 55 51 49 49 49 48 46 46 46 46 48 50 51 48 47 48 49 48 48 49 50 49 49 49 49 48 47 45 45 47 48 51 55 58 56 51 49 48 44 43 47
174 169 162 157 155 156 154 148 136 119 102 91 82 77 85 71 25 24 33 35 38 47 51 49 47 47 46 45 44 42 38 36 36 34 30 35 53 62 63 62 59 58 57 56 54 52 50 49 49 49 48 47 46 45 45 46 48 50 48 46 47 50 51 50 49 48 49 49 49 49 49 48 47 47 47 46 47 50 53 54 54 52 46 42 43
174 167 160 156 155 154 152 148 134 119 128 152 152 149 165 170 143 81 57 40 29 28 37 44 45 44 47 51 51 48 44 41 40 39 38 44 55 63 68 66 60 57 56 54 51 51 51 50 50 51 50 49 46 44 45 44 42 44 47 46 44 45 49 50 48 46 46 48 47 46 48 48 47 45 46 47 45 43 44 46 48 49 48 46 44
172 168 162 156 151 151 155 159 160 159 167 172 165 147 152 156 139 125 121 105 83 34 29 39 39 44 59 62 59 56 49 43 43 44 43 47 55 58 58 55 51 51 52 50 47 48 50 51 52 52 53 54 50 43 42 46 44 40 40 44 44 42 44 47 47 44 43 45 46 45 44 44 46 45 43 43 44 44 42 41 41 43 45 44 41
174 168 159 151 150 158 162 164 167 166 160 155 152 146 142 140 138 140 136 120 104 98 82 56 34 40 62 62 57 57 50 37 36 44 44 45 54 56 52 49 47 49 52 49 44 43 46 49 52 53 54 57 57 50 42 43 49 47 40 39 43 44 43 43 43 43 42 41 42 45 44 40 41 44 43 41 39 39 39 38 36 36 38 40 37
169 160 153 151 158 165 162 160 165 166 155 147 152 151 144 143 145 148 147 135 109 76 90 108 88 55 56 48 44 54 49 32 26 37 42 43 50 54 53 51 48 49 53 51 45 41 42 42 46 52 54 55 59 59 49 39 41 51 50 43 38 42 47 46 42 40 41 40 39 41 43 42 39 39 40 40 39 36 35 33 30 30 30 32 30
163 157 158 162 166 164 163 169 174 169 155 151 153 144 139 144 142 132 134 130 116 97 84 96 82 61 52 50 58 68 61 37 25 33 39 42 47 50 52 55 52 47 50 53 48 41 40 40 38 45 54 54 53 59 59 48 37 40 50 50 42 37 41 48 46 39 36 38 38 36 37 38 38 35 33 33 33 35 35 30 26 25 22 15 13
164 164 167 167 163 161 165 170 168 160 154 160 160 146 138 142 143 143 145 134 122 128 125 64 63 58 53 55 71 82 71 48 31 34 37 39 44 46 46 49 51 48 49 53 48 38 36 38 38 40 50 53 49 51 58 55 45 35 38 51 53 44 38 43 49 46 39 35 35 34 33 32 32 34 36 34 28 27 31 31 28 23 17 9 4
164 167 167 160 153 153 154 153 155 164 170 164 157 152 149 145 140 146 151 135 122 137 189 22 42 54 57 59 71 78 71 56 42 44 42 37 38 40 38 39 42 41 44 53 52 40 30 28 33 37 43 46 46 44 46 50 49 40 33 41 54 55 50 51 54 53 47 38 31 30 31 32 31 33 37 36 29 23 24 29 30 25 16 10 5
165 162 159 156 154 152 150 152 163 181 189 179 164 159 157 150 143 145 149 139 134 160 217 45 58 58 58 63 70 73 68 52 39 46 51 46 40 33 27 30 36 34 31 39 49 46 34 23 23 30 35 38 38 35 32 35 39 36 34 35 38 42 56 68 68 63 56 46 35 27 25 27 31 33 32 29 27 23 19 20 25 25 19 13 6
161 154 154 160 163 162 169 176 177 185 197 192 172 160 155 158 158 155 157 163 165 177 211 57 61 58 58 62 67 68 64 52 41 42 42 44 46 37 22 24 36 34 24 25 34 42 38 27 21 23 27 31 34 29 23 25 30 29 29 31 32 33 40 54 67 70 64 55 45 35 25 19 21 30 33 27 22 23 21 17 18 20 19 16 10
157 153 158 164 162 165 180 188 185 186 189 186 179 170 156 153 169 177 186 192 181 165 161 23 32 35 39 48 56 63 59 49 54 56 42 33 40 40 26 23 29 25 18 20 25 27 26 23 21 21 20 21 27 27 18 16 23 27 25 23 26 30 34 34 40 55 63 59 52 43 31 19 12 19 32 30 21 20 20 15 12 14 13 12 11
162 165 168 165 162 173 187 187 186 191 191 189 192 185 167 160 184 194 191 187 159 122 152 218 350 3 9 30 53 76 63 30 37 53 53 43 37 28 18 24 26 16 11 18 22 19 17 17 17 19 18 14 15 19 15 12 17 24 24 20 21 24 28 32 39 49 58 58 54 46 35 21 10 11 21 23 17 16 17 13 8 9 7 4 3
169 171 171 170 172 182 184 179 188 202 201 192 195 192 178 174 189 184 168 174 190 176 178 202 229 239 213 198 160 124 92 54 28 18 21 31 29 5 350 8 28 16 8 15 19 14 13 15 13 11 11 9 6 7 6 7 12 19 22 22 21 22 24 30 40 49 51 50 50 45 34 20 7 7 14 16 11 9 10 7 3 4 7 3 356
175 172 171 175 178 179 178 185 201 209 199 185 188 188 179 181 190 188 195 209 201 178 163 195 226 220 210 203 202 174 103 86 29 2 10 14 7 349 337 342 18 16 3 7 16 15 11 10 9 6 3 1 1 360 359 2 9 17 23 23 22 23 26 27 30 40 43 40 42 42 33 16 1 359 7 14 14 7 2 360 360 3 10 6 354
177 173 175 178 177 178 186 198 206 202 189 185 189 184 180 192 200 200 205 205 177 151 149 198 221 220 217 209 199 192 181 152 4 32 19 344 339 339 332 329 355 24 3 356 5 14 14 11 11 8 4 1 358 355 356 4 11 15 22 26 24 24 29 28 23 27 33 31 29 33 27 12 358 355 356 1 8 5 359 357 359 6 11 4 352
181 178 182 181 180 185 194 197 191 182 180 186 189 185 188 198 201 192 189 186 159 140 175 218 219 218 217 209 208 222 239 269 19 108 249 299 320 330 324 324 342 16 2 349 358 10 13 13 14 13 10 9 5 359 2 14 19 16 20 26 24 21 25 25 19 19 23 16 6 11 12 4 357 357 356 351 347 352 359 1 0 4 7 359 349
184 181 181 181 183 189 193 187 179 179 186 191 192 192 194 195 192 189 195 205 206 210 222 221 215 217 222 217 211 222 235 233 208 198 236 271 282 288 301 313 326 343 349 353 3 11 11 12 17 18 16 16 18 16 18 25 27 24 24 26 23 20 22 20 13 13 16 5 346 349 1 358 352 354 357 352 346 351 4 6 2 1 0 354 348
190 185 182 182 186 191 192 185 181 186 191 192 194 198 197 193 193 196 202 208 212 214 220 223 219 219 223 224 220 222 226 221 211 207 225 246 254 267 289 300 303 314 344 347 350 0 10 15 20 24 24 26 30 34 35 39 40 35 32 30 25 20 20 17 9 7 7 355 343 348 360 355 346 349 354 350 349 357 3 1 1 4 359 348 344
Height
1509 1511 1512 1514 1515 1515 1517 1517 1518 1519 1519 1520 1521 1521 1521 1521 1521 1520 1520 1520 1519 1518 1517 1516 1517 1517 1517 1517 1517 1517 1516 1516 1516 1515 1515 1514 1512 1511 1510 1510 1512 1511 1509 1509 1508 1508 1507 1506 1505 1504 1502 1502 1508 1511 1510 1509 1509 1507 1506 1505 1505 1506 1505 1505 1502 1500 1500 1501 1502 1503 1505 1506 1505 1505 1505 1504 1504 1505 1505 1505 1504 1503 1503 1503 1502
1508 1509 1510 1511 1513 1514 1515 1515 1516 1517 1518 1518 1519 1518 1518 1518 1518 1517 1517 1517 1517 1516 1515 1515 1515 1514 1514 1515 1515 1514 1514 1513 1513 1512 1512 1510 1509 1509 1508 1508 1510 1510 1508 1507 1506 1505 1503 1502 1502 1501 1499 1499 1503 1504 1503 1503 1503 1501 1500 1499 1499 1500 1500 1499 1498 1496 1495 1496 1498 1499 1501 1501 1500 1500 1501 1500 1500 1501 1502 1502 1502 1500 1500 1500 1499
1506 1507 1508 1510 1511 1512 1513 1514 1514 1515 1516 1516 1517 1517 1516 1516 1515 1514 1515 1515 1513 1513 1513 1513 1512 1511 1512 1512 1512 1512 1511 1510 1510 1510 1508 1507 1507 1507 1505 1505 1506 1506 1504 1504 1503 1501 1500 1499 1498 1498 1497 1496 1497 1498 1498 1498 1497 1497 1496 1495 1495 1495 1495 1495 1494 1493 1492 1492 1494 1495 1495 1496 1495 1496 1497 1497 1497 1497 1498 1498 1498 1497 1496 1496 1496
1505 1506 1507 1508 1509 1510 1511 1511 1512 1513 1514 1514 1515 1515 1515 1514 1512 1511 1512 1512 1510 1510 1511 1510 1510 1510 1511 1510 1510 1509 1508 1507 1507 1507 1506 1505 1505 1504 1503 1501 1501 1501 1500 1500 1499 1498 1497 1496 1495 1495 1494 1493 1493 1494 1494 1493 1493 1492 1492 1491 1491 1491 1491 1491 1491 1490 1489 1489 1489 1490 1490 1491 1491 1492 1493 1493 1494 1494 1494 1495 1495 1494 1493 1493 1493
1503 1504 1505 1507 1507 1508 1509 1509 1510 1510 1511 1512 1513 1513 1512 1510 1510 1509 1510 1510 1509 1509 1509 1509 1509 1509 1509 1508 1507 1507 1506 1506 1505 1505 1505 1504 1502 1501 1499 1498 1497 1497 1497 1496 1495 1493 1492 1492 1491 1491 1490 1490 1489 1490 1489 1488 1488 1487 1487 1487 1487 1487 1487 1487 1487 1486 1485 1484 1485 1485 1485 1486 1486 1488 1489 1490 1490 1490 1491 1491 1491 1491 1490 1490 1490
1502 1502 1504 1505 1506 1506 1507 1507 1507 1508 1508 1510 1510 1510 1509 1508 1508 1508 1508 1508 1508 1508 1508 1507 1508 1507 1506 1505 1505 1504 1504 1504 1503 1503 1502 1501 1499 1498 1496 1495 1494 1493 1493 1492 1491 1489 1488 1488 1488 1488 1487 1486 1486 1485 1485 1484 1483 1483 1483 1483 1483 1483 1483 1483 1483 1482 1480 1480 1481 1481 1481 1482 1483 1485 1487 1487 1487 1487 1487 1487 1487 1487 1487 1487 1487
1500 1501 1502 1503 1504 1505 1505 1505 1505 1505 1506 1507 1507 1507 1507 1507 1507 1506 1506 1506 1507 1507 1506 1506 1505 1504 1504 1503 1503 1503 1502 1501 1500 1500 1498 1497 1496 1495 1493 1492 1491 1490 1489 1488 1488 1487 1486 1485 1485 1484 1484 1483 1483 1482 1481 1480 1479 1478 1479 1479 1479 1479 1479 1479 1480 1478 1477 1477 1478 1478 1479 1480 1481 1481 1483 1484 1484 1484 1484 1483 1483 1484 1484 1484 1484
1498 1499 1500 1501 1502 1503 1502 1502 1503 1504 1504 1505 1505 1505 1505 1505 1505 1505 1505 1505 1505 1505 1504 1504 1503 1502 1502 1502 1502 1501 1499 1497 1497 1496 1495 1494 1493 1492 1491 1489 1487 1486 1485 1485 1484 1483 1482 1481 1481 1481 1481 1481 1481 1480 1479 1477 1475 1474 1474 1475 1475 1476 1476 1476 1476 1474 1474 1475 1475 1475 1476 1477 1476 1477 1479 1480 1480 1480 1481 1481 1480 1481 1481 1481 1481
1496 1498 1498 1499 1499 1500 1501 1501 1502 1503 1503 1503 1503 1504 1504 1504 1504 1504 1504 1504 1504 1503 1503 1503 1502 1501 1500 1500 1499 1497 1495 1495 1494 1493 1492 1491 1490 1489 1487 1486 1485 1483 1482 1481 1480 1479 1478 1478 1477 1477 1477 1476 1476 1476 1475 1474 1473 1471 1471 1471 1472 1472 1472 1473 1472 1471 1471 1472 1472 1472 1473 1473 1473 1475 1476 1477 1477 1477 1478 1478 1478 1478 1478 1477 1477
1495 1496 1496 1497 1498 1499 1500 1500 1501 1501 1502 1502 1503 1503 1503 1503 1503 1503 1502 1502 1502 1502 1502 1501 1500 1499 1498 1498 1497 1494 1493 1493 1491 1490 1489 1488 1487 1485 1484 1483 1481 1480 1478 1477 1476 1475 1475 1474 1474 1473 1473 1472 1472 1471 1470 1470 1470 1469 1468 1468 1468 1468 1468 1468 1469 1468 1469 1470 1470 1471 1471 1471 1473 1474 1475 1475 1475 1475 1475 1475 1475 1475 1475 1475 1474
1493 1494 1496 1497 1498 1498 1499 1499 1499 1500 1501 1502 1502 1502 1502 1502 1501 1501 1501 1501 1500 1500 1499 1498 1498 1497 1496 1496 1494 1492 1491 1491 1489 1488 1487 1485 1484 1482 1481 1479 1478 1476 1475 1474 1473 1472 1471 1470 1470 1469 1469 1468 1468 1467 1466 1466 1465 1465 1465 1465 1465 1465 1465 1465 1465 1466 1466 1467 1468 1469 1469 1470 1471 1472 1472 1472 1472 1473 1473 1473 1473 1473 1473 1472 1472
1492 1494 1495 1496 1497 1497 1498 1499 1499 1500 1500 1501 1501 1501 1500 1500 1500 1500 1500 1499 1499 1498 1498 1497 1496 1495 1495 1494 1492 1490 1490 1489 1487 1486 1484 1483 1481 1480 1478 1476 1475 1473 1472 1471 1470 1469 1468 1467 1466 1466 1466 1465 1465 1464 1463 1462 1462 1462 1462 1462 1462 1463 1463 1463 1463 1463 1464 1464 1465 1466 1467 1467 1469 1469 1469 1469 1470 1470 1470 1470 1471 1471 1470 1470 1470
1492 1494 1495 1496 1496 1497 1498 1499 1499 1500 1499 1500 1500 1500 1500 1500 1499 1499 1499 1498 1498 1497 1497 1496 1495 1494 1494 1493 1491 1489 1489 1487 1485 1483 1482 1480 1479 1477 1475 1474 1472 1471 1470 1468 1467 1466 1465 1464 1463 1463 1463 1462 1462 1461 1460 1460 1459 1459 1459 1459 1459 1460 1460 1460 1460 1460 1461 1461 1461 1462 1463 1464 1465 1466 1466 1466 1467 1468 1468 1468 1468 1468 1468 1468 1467
1492 1494 1495 1496 1497 1498 1498 1498 1498 1499 1499 1499 1499 1499 1499 1499 1498 1498 1498 1497 1497 1496 1496 1495 1494 1493 1492 1492 1490 1488 1487 1486 1483 1481 1480 1478 1477 1475 1473 1471 1470 1468 1467 1465 1464 1463 1463 1462 1461 1460 1460 1459 1459 1458 1457 1457 1457 1457 1457 1456 1457 1457 1458 1458 1458 1458 1458 1458 1458 1459 1460 1461 1462 1462 1463 1463 1464 1465 1465 1465 1466 1466 1466 1466 1465
1492 1493 1494 1495 1496 1497 1497 1497 1498 1499 1499 1499 1499 1499 1499 1498 1498 1497 1497 1497 1496 1496 1495 1495 1493 1492 1491 1491 1490 1487 1485 1484 1482 1479 1478 1476 1474 1472 1470 1469 1467 1466 1464 1463 1462 1461 1460 1459 1459 1458 1457 1457 1456 1455 1454 1454 1453 1454 1454 1455 1455 1455 1456 1456 1456 1456 1457 1457 1456 1456 1457 1458 1459 1459 1460 1461 1461 1462 1463 1463 1463 1463 1463 1463 1463
1491 1492 1493 1494 1495 1496 1496 1497 1498 1499 1499 1499 1499 1498 1498 1497 1497 1497 1497 1496 1496 1496 1495 1494 1493 1491 1490 1490 1489 1486 1484 1482 1480 1478 1476 1474 1472 1470 1468 1467 1465 1463 1462 1460 1459 1458 1458 1457 1456 1455 1454 1454 1453 1452 1452 1452 1451 1451 1452 1453 1453 1453 1454 1454 1454 1454 1455 1455 1454 1455 1455 1456 1457 1457 1458 1458 1459 1460 1460 1461 1461 1461 1461 1461 1461
1490 1491 1492 1493 1494 1495 1496 1497 1498 1498 1498 1498 1498 1498 1497 1497 1497 1497 1497 1497 1496 1495 1495 1493 1492 1491 1489 1488 1487 1486 1484 1482 1480 1478 1476 1473 1470 1468 1466 1465 1463 1462 1461 1459 1458 1457 1456 1455 1454 1453 1452 1451 1450 1450 1450 1450 1450 1450 1450 1451 1452 1452 1452 1452 1452 1453 1454 1453 1453 1454 1454 1454 1455 1455 1455 1456 1457 1458 1458 1459 1460 1460 1459 1459 1459
1490 1491 1492 1493 1494 1495 1495 1496 1497 1497 1497 1497 1497 1497 1497 1497 1497 1497 1497 1496 1495 1495 1494 1493 1492 1490 1489 1488 1487 1485 1484 1482 1480 1478 1475 1472 1470 1468 1466 1465 1463 1462 1460 1459 1458 1456 1454 1453 1452 1451 1450 1449 1448 1448 1448 1448 1448 1448 1448 1449 1450 1451 1451 1451 1452 1452 1452 1452 1452 1453 1453 1453 1453 1453 1453 1454 1455 1456 1457 1457 1457 1457 1457 1457 1457
1490 1491 1492 1492 1493 1494 1495 1495 1496 1496 1496 1496 1497 1497 1497 1498 1498 1497 1497 1496 1495 1495 1494 1493 1492 1490 1489 1488 1487 1485 1484 1482 1480 1478 1475 1472 1470 1468 1466 1464 1463 1462 1460 1459 1457 1455 1453 1451 1449 1449 1448 1447 1447 1447 1446 1447 1447 1447 1447 1447 1448 1449 1450 1451 1451 1452 1452 1452 1452 1452 1452 1452 1453 1452 1452 1453 1453 1454 1455 1455 1454 1455 1455 1455 1455
1490 1491 1492 1492 1493 1493 1494 1494 1495 1495 1496 1496 1497 1498 1498 1498 1498 1497 1497 1496 1495 1495 1494 1493 1492 1491 1489 1488 1487 1486 1484 1482 1480 1477 1474 1472 1470 1468 1466 1465 1463 1462 1460 1459 1456 1454 1451 1449 1448 1447 1446 1445 1445 1445 1445 1446 1445 1445 1445 1445 1446 1447 1448 1450 1451 1451 1452 1452 1452 1452 1452 1452 1453 1452 1452 1452 1452 1453 1453 1452 1452 1453 1453 1453 1453
1490 1492 1492 1492 1493 1493 1493 1494 1494 1495 1496 1496 1497 1499 1499 1498 1498 1497 1497 1497 1496 1495 1494 1493 1493 1491 1490 1489 1488 1486 1484 1482 1480 1477 1475 1473 1471 1469 1467 1466 1464 1463 1461 1459 1457 1454 1451 1449 1446 1445 1443 1442 1443 1444 1444 1444 1444 1444 1444 1444 1445 1445 1447 1449 1450 1451 1451 1452 1452 1452 1452 1452 1452 1451 1451 1451 1451 1451 1451 1451 1451 1451 1451 1451 1451
1490 1491 1491 1492 1493 1492 1493 1494 1494 1495 1496 1497 1498 1500 1499 1499 1498 1497 1497 1497 1497 1496 1495 1494 1494 1492 1491 1490 1488 1486 1485 1483 1480 1478 1476 1475 1472 1470 1469 1467 1466 1464 1462 1459 1457 1455 1452 1449 1446 1444 1442 1441 1443 1444 1444 1444 1443 1443 1443 1443 1444 1445 1445 1447 1449 1450 1451 1452 1452 1452 1451 1451 1451 1451 1450 1450 1450 1450 1450 1450 1449 1450 1450 1450 1450
1490 1490 1491 1492 1492 1493 1493 1494 1494 1496 1497 1499 1500 1500 1500 1499 1498 1498 1499 1498 1498 1497 1496 1496 1495 1494 1492 1491 1489 1487 1485 1483 1481 1479 1478 1476 1474 1472 1471 1470 1468 1466 1464 1461 1459 1456 1454 1451 1448 1446 1444 1443 1444 1445 1444 1444 1443 1443 1443 1443 1444 1444 1445 1446 1448 1449 1451 1451 1451 1451 1451 1451 1451 1451 1451 1450 1450 1450 1450 1449 1450 1450 1450 1450 1450
1491 1490 1491 1492 1493 1493 1494 1495 1496 1497 1498 1500 1500 1500 1499 1499 1498 1498 1499 1499 1499 1499 1498 1497 1496 1495 1493 1492 1491 1489 1487 1485 1483 1482 1480 1478 1476 1474 1473 1472 1470 1468 1466 1464 1461 1459 1456 1454 1452 1450 1448 1447 1447 1447 1446 1445 1445 1444 1444 1445 1445 1445 1446 1447 1449 1450 1451 1451 1451 1451 1451 1451 1451 1450 1450 1450 1449 1449 1449 1449 1450 1450 1449 1449 1448
1493 1492 1492 1492 1493 1494 1495 1496 1497 1498 1499 1500 1500 1499 1499 1499 1498 1498 1498 1499 1499 1499 1499 1498 1497 1496 1495 1494 1492 1491 1489 1487 1485 1484 1483 1481 1479 1477 1475 1474 1473 1471 1469 1467 1465 1462 1460 1458 1456 1454 1452 1451 1450 1449 1449 1448 1448 1447 1447 1447 1447 1447 1448 1449 1450 1451 1451 1451 1452 1452 1451 1451 1450 1449 1449 1448 1447 1446 1446 1447 1448 1448 1447 1447 1446
1495 1493 1493 1493 1493 1494 1495 1497 1498 1498 1499 1500 1499 1499 1499 1499 1499 1499 1499 1499 1499 1500 1499 1499 1499 1498 1496 1495 1494 1493 1491 1489 1488 1486 1484 1483 1481 1480 1478 1476 1475 1473 1471 1470 1468 1466 1464 1463 1461 1458 1456 1455 1454 1453 1452 1452 1451 1450 1450 1450 1450 1450 1451 1451 1451 1452 1452 1452 1452 1452 1452 1452 1451 1450 1448 1447 1445 1444 1444 1444 1445 1446 1446 1446 1445
1495 1494 1493 1494 1494 1496 1497 1498 1499 1499 1500 1499 1499 1499 1499 1499 1499 1499 1499 1499 1500 1500 1500 1500 1499 1499 1498 1497 1495 1494 1492 1491 1489 1488 1486 1485 1483 1482 1480 1478 1477 1475 1474 1472 1471 1469 1467 1466 1465 1463 1461 1460 1458 1457 1457 1456 1455 1454 1453 1453 1453 1453 1454 1454 1454 1454 1454 1454 1454 1454 1454 1454 1453 1451 1449 1448 1446 1444 1444 1443 1444 1445 1446 1445 1445
1495 1494 1494 1495 1496 1498 1499 1500 1500 1500 1500 1499 1499 1500 1500 1500 1500 1500 1500 1500 1500 1501 1501 1500 1500 1500 1499 1498 1497 1495 1494 1492 1491 1489 1488 1486 1485 1483 1481 1480 1478 1477 1475 1474 1473 1471 1470 1469 1468 1467 1465 1464 1463 1461 1461 1460 1459 1458 1457 1457 1457 1457 1457 1457 1456 1456 1456 1456 1456 1456 1456 1455 1454 1453 1452 1450 1448 1447 1446 1445 1445 1445 1446 1446 1446
1495 1494 1494 1496 1498 1499 1500 1500 1500 1500 1500 1500 1500 1501 1501 1501 1501 1501 1502 1502 1502 1502 1502 1501 1501 1500 1500 1499 1498 1496 1495 1494 1492 1492 1491 1489 1487 1485 1483 1482 1480 1479 1478 1477 1475 1474 1472 1471 1471 1470 1469 1468 1466 1465 1464 1463 1462 1462 1461 1461 1460 1460 1460 1459 1459 1458 1458 1458 1458 1458 1457 1457 1456 1455 1454 1453 1451 1450 1450 1448 1448 1447 1447 1447 1447
1494 1494 1495 1497 1498 1498 1498 1499 1499 1499 1500 1501 1501 1502 1502 1503 1503 1503 1503 1503 1503 1503 1503 1503 1502 1501 1501 1500 1499 1498 1497 1496 1495 1494 1493 1491 1490 1488 1486 1485 1483 1482 1481 1479 1478 1477 1475 1474 1474 1473 1472 1472 1470 1469 1469 1468 1467 1466 1465 1465 1464 1464 1463 1463 1462 1462 1462 1461 1461 1461 1460 1459 1458 1457 1457 1456 1454 1454 1453 1452 1451 1451 1450 1449 1449
1494 1495 1496 1498 1498 1498 1498 1499 1499 1500 1501 1501 1502 1503 1503 1504 1504 1504 1505 1505 1505 1505 1504 1504 1503 1502 1502 1501 1500 1499 1499 1498 1497 1496 1494 1493 1492 1490 1489 1487 1486 1484 1483 1481 1480 1479 1478 1477 1477 1476 1475 1475 1474 1473 1473 1472 1471 1470 1469 1468 1468 1467 1466 1466 1466 1466 1465 1465 1464 1464 1463 1462 1461 1460 1460 1459 1457 1456 1456 1455 1455 1454 1453 1453 1452
1495 1496 1497 1498 1498 1498 1499 1499 1499 1500 1501 1502 1504 1504 1505 1505 1506 1506 1506 1506 1506 1506 1506 1505 1504 1504 1503 1502 1501 1501 1500 1499 1498 1497 1496 1494 1493 1492 1491 1489 1488 1487 1485 1482 1482 1481 1481 1480 1480 1479 1478 1478 1477 1476 1475 1474 1474 1473 1472 1472 1471 1470 1470 1469 1469 1469 1468 1467 1467 1466 1465 1465 1464 1463 1462 1462 1461 1461 1460 1459 1458 1457 1457 1456 1456
1495 1496 1497 1498 1499 1499 1500 1500 1500 1501 1502 1503 1504 1505 1506 1506 1507 1507 1507 1507 1507 1507 1506 1506 1505 1504 1504 1503 1502 1501 1501 1500 1499 1498 1496 1495 1494 1493 1492 1491 1490 1489 1487 1485 1484 1484 1483 1483 1482 1482 1481 1481 1480 1479 1478 1477 1477 1476 1475 1475 1474 1473 1473 1472 1472 1471 1470 1469 1469 1468 1468 1467 1467 1466 1465 1465 1464 1464 1464 1463 1462 1461 1460 1459 1459
1496 1496 1497 1498 1499 1500 1500 1500 1501 1502 1503 1504 1505 1506 1507 1507 1507 1508 1508 1508 1508 1508 1507 1507 1506 1505 1505 1504 1503 1502 1502 1501 1499 1498 1497 1496 1495 1494 1493 1492 1491 1490 1488 1487 1486 1486 1486 1485 1485 1484 1484 1483 1483 1482 1481 1480 1479 1479 1478 1478 1477 1476 1475 1475 1474 1473 1473 1472 1471 1470 1470 1470 1469 1468 1468 1467 1466 1466 1465 1465 1465 1464 1463 1462 1461
1495 1496 1497 1498 1499 1499 1500 1501 1502 1502 1503 1505 1506 1507 1508 1508 1508 1508 1508 1508 1509 1508 1508 1507 1507 1506 1505 1505 1504 1503 1502 1502 1501 1500 1498 1498 1497 1496 1494 1493 1492 1491 1490 1489 1489 1489 1488 1488 1487 1486 1486 1486 1485 1485 1484 1483 1482 1481 1481 1480 1480 1479 1478 1477 1476 1476 1475 1474 1474 1473 1472 1472 1471 1471 1470 1469 1468 1468 1467 1466 1466 1466 1465 1464 1464
1494 1496 1497 1498 1499 1500 1500 1501 1502 1502 1504 1505 1507 1508 1508 1508 1509 1509 1509 1509 1509 1509 1508 1508 1508 1507 1507 1506 1505 1504 1504 1503 1502 1501 1500 1499 1498 1497 1496 1495 1494 1493 1492 1491 1491 1491 1490 1490 1489 1488 1487 1487 1487 1487 1486 1485 1484 1484 1483 1482 1482 1481 1480 1479 1478 1478 1477 1476 1476 1475 1475 1474 1473 1473 1472 1471 1470 1470 1469 1468 1468 1467 1467 1466 1465
1494 1495 1497 1498 1499 1500 1500 1501 1502 1503 1504 1506 1507 1508 1508 1509 1509 1509 1509 1509 1509 1509 1509 1509 1508 1508 1507 1506 1506 1505 1504 1504 1503 1502 1501 1500 1499 1498 1497 1497 1496 1495 1494 1494 1494 1493 1492 1491 1491 1490 1489 1489 1488 1488 1488 1487 1486 1486 1485 1485 1484 1483 1483 1482 1481 1480 1479 1478 1478 1477 1476 1476 1475 1475 1474 1473 1473 1472 1471 1470 1470 1469 1468 1468 1467
1493 1495 1496 1498 1498 1499 1500 1501 1502 1503 1504 1505 1507 1507 1508 1508 1508 1508 1509 1509 1509 1510 1509 1509 1508 1508 1507 1507 1506 1505 1505 1505 1504 1503 1502 1501 1500 1499 1499 1498 1498 1497 1496 1496 1496 1495 1494 1494 1493 1492 1491 1490 1489 1489 1489 1489 1488 1487 1486 1486 1486 1485 1484 1484 1483 1482 1481 1481 1480 1479 1478 1478 1477 1476 1476 1475 1474 1474 1473 1472 1471 1470 1470 1469 1468
1493 1494 1496 1497 1498 1499 1500 1501 1501 1503 1504 1505 1506 1507 1507 1508 1508 1509 1509 1509 1510 1510 1509 1509 1509 1508 1507 1507 1507 1506 1506 1506 1505 1504 1503 1502 1501 1501 1500 1500 1499 1498 1498 1497 1497 1497 1496 1495 1494 1493 1492 1492 1491 1490 1490 1490 1489 1488 1487 1487 1487 1486 1485 1484 1484 1484 1483 1482 1482 1481 1480 1479 1479 1478 1477 1476 1476 1475 1474 1473 1473 1472 1471 1470 1469
1492 1493 1495 1496 1498 1499 1500 1500 1502 1503 1504 1505 1506 1506 1507 1508 1508 1509 1509 1510 1510 1510 1510 1509 1509 1508 1508 1508 1507 1507 1507 1507 1506 1505 1504 1503 1503 1502 1502 1501 1500 1500 1499 1499 1498 1498 1497 1497 1496 1495 1494 1493 1492 1492 1491 1490 1490 1490 1489 1488 1487 1487 1487 1486 1484 1484 1484 1484 1483 1482 1482 1481 1480 1479 1478 1478 1477 1476 1475 1474 1474 1473 1472 1470 1469
1491 1493 1494 1496 1498 1499 1499 1500 1502 1504 1504 1504 1505 1505 1506 1507 1508 1509 1509 1510 1510 1510 1510 1509 1509 1509 1508 1508 1508 1507 1507 1507 1507 1506 1505 1504 1504 1503 1503 1502 1501 1501 1500 1500 1499 1499 1499 1498 1497 1496 1495 1494 1494 1493 1492 1491 1490 1490 1489 1489 1488 1487 1487 1486 1485 1485 1485 1485 1484 1484 1483 1482 1481 1480 1479 1479 1478 1477 1476 1475 1475 1474 1473 1472 1470
1491 1492 1493 1495 1497 1498 1499 1501 1503 1503 1503 1503 1504 1505 1506 1507 1508 1509 1510 1510 1511 1511 1510 1510 1510 1509 1509 1508 1508 1508 1508 1508 1507 1507 1506 1506 1505 1504 1504 1503 1503 1502 1501 1501 1500 1500 1500 1499 1498 1497 1497 1496 1495 1494 1493 1492 1491 1491 1490 1489 1488 1488 1487 1487 1486 1485 1484 1485 1485 1485 1484 1483 1482 1481 1481 1480 1479 1478 1478 1477 1476 1475 1474 1473 1472
1490 1492 1493 1494 1496 1498 1499 1501 1502 1502 1502 1502 1503 1505 1506 1507 1508 1509 1509 1510 1510 1510 1510 1510 1510 1510 1510 1509 1509 1509 1508 1508 1508 1507 1507 1506 1506 1506 1505 1504 1504 1503 1503 1502 1501 1501 1501 1500 1499 1498 1497 1496 1496 1495 1494 1493 1492 1492 1491 1490 1489 1489 1488 1487 1487 1486 1485 1485 1485 1485 1485 1484 1483 1482 1482 1481 1480 1480 1479 1478 1477 1476 1475 1474 1473
1490 1492 1493 1494 1495 1497 1499 1500 1501 1502 1501 1502 1503 1504 1505 1507 1508 1508 1508 1509 1509 1509 1510 1510 1510 1510 1510 1510 1509 1509 1509 1509 1509 1508 1508 1507 1507 1506 1506 1505 1504 1504 1503 1503 1502 1502 1501 1500 1500 1499 1498 1497 1497 1496 1495 1494 1493 1492 1492 1491 1490 1489 1489 1488 1488 1487 1486 1486 1485 1485 1486 1485 1484 1483 1482 1482 1481 1480 1480 1479 1478 1477 1476 1475 1474
1491 1492 1493 1493 1495 1497 1498 1499 1500 1500 1500 1501 1502 1503 1505 1506 1507 1507 1508 1509 1509 1509 1510 1510 1510 1510 1510 1510 1510 1510 1510 1509 1509 1508 1508 1508 1507 1507 1506 1506 1505 1505 1504 1503 1503 1502 1502 1501 1500 1499 1499 1498 1497 1497 1496 1495 1494 1493 1492 1491 1491 1490 1489 1489 1488 1488 1488 1487 1486 1486 1486 1486 1485 1484 1483 1482 1482 1481 1480 1479 1478 1477 1477 1476 1474
1491 1492 1492 1493 1495 1496 1497 1498 1499 1499 1499 1501 1502 1503 1504 1506 1506 1507 1508 1509 1509 1510 1510 1510 1511 1511 1511 1511 1511 1510 1510 1510 1509 1509 1508 1508 1507 1507 1506 1506 1506 1505 1504 1504 1503 1503 1502 1501 1501 1500 1499 1499 1498 1497 1496 1495 1494 1494 1493 1492 1492 1491 1490 1490 1489 1489 1488 1488 1487 1486 1486 1486 1486 1485 1484 1483 1482 1481 1480 1480 1479 1478 1477 1476 1475
1491 1491 1492 1493 1494 1495 1496 1497 1497 1498 1499 1501 1502 1502 1504 1505 1506 1507 1508 1508 1508 1509 1510 1510 1511 1511 1511 1511 1511 1510 1510 1510 1510 1509 1508 1508 1507 1507 1506 1506 1506 1505 1505 1504 1504 1503 1502 1501 1501 1500 1499 1499 1498 1497 1497 1496 1495 1495 1494 1493 1492 1492 1491 1491 1490 1489 1489 1489 1488 1487 1486 1486 1486 1485 1484 1483 1483 1482 1481 1480 1479 1478 1477 1476 1475
1490 1490 1491 1492 1493 1494 1495 1495 1496 1497 1499 1500 1501 1502 1504 1505 1506 1506 1507 1507 1508 1508 1509 1510 1511 1511 1510 1510 1510 1510 1510 1510 1510 1509 1509 1509 1508 1507 1507 1506 1506 1506 1505 1505 1504 1503 1502 1502 1501 1500 1499 1499 1498 1497 1497 1496 1495 1495 1494 1494 1493 1492 1492 1491 1491 1490 1489 1489 1488 1488 1487 1486 1486 1485 1484 1483 1482 1482 1481 1480 1479 1478 1477 1477 1476
1489 1490 1490 1491 1492 1493 1493 1494 1495 1497 1498 1500 1501 1502 1503 1504 1505 1506 1506 1507 1507 1508 1509 1510 1510 1510 1510 1510 1510 1510 1510 1509 1509 1509 1509 1509 1508 1507 1507 1506 1506 1506 1505 1505 1504 1503 1503 1502 1501 1500 1499 1499 1498 1497 1497 1496 1496 1495 1495 1494 1493 1493 1492 1492 1491 1490 1490 1489 1489 1488 1487 1486 1486 1485 1484 1483 1482 1482 1481 1480 1479 1478 1478 1477 1476
1488 1488 1489 1491 1491 1491 1492 1493 1495 1496 1498 1500 1501 1502 1503 1503 1504 1505 1506 1507 1507 1508 1509 1509 1510 1510 1510 1509 1509 1509 1509 1509 1509 1509 1509 1509 1508 1507 1507 1506 1506 1506 1506 1505 1505 1504 1503 1503 1502 1501 1500 1499 1498 1497 1497 1496 1496 1495 1495 1494 1494 1493 1493 1492 1491 1491 1490 1490 1489 1488 1487 1487 1486 1485 1484 1483 1483 1482 1481 1480 1479 1479 1478 1477 1476
1487 1487 1489 1490 1490 1490 1492 1493 1494 1496 1498 1499 1500 1502 1502 1503 1504 1505 1506 1506 1507 1508 1508 1509 1509 1509 1509 1509 1509 1509 1509 1508 1508 1508 1509 1508 1508 1507 1507 1506 1506 1506 1506 1505 1505 1504 1504 1503 1502 1501 1500 1499 1498 1498 1497 1497 1496 1496 1495 1495 1494 1494 1493 1493 1492 1491 1491 1490 1489 1488 1487 1487 1486 1485 1484 1483 1483 1482 1481 1480 1479 1478 1478 1477 1476